User: anonymous   Login
Location: Castelbiague
(43.0361°N, 0.9246°E)
Time: 21:49:45
(UTC+00:00)
Language:

HODOYOSHI 3 - Orbit

View from above orbital plane
View from above orbital plane
View from above satellite
View from above satellite

Ground track
Ground track

The orbit data is extracted from the following two-line orbital elements,

1 40015U 14033F   22028.54445499  .00000264  00000-0  42328-4 0  9994
2 40015  97.6580 249.3736 0036412 196.8267 163.1740 14.78758934410638
Epoch (UTC): 28 January 2022 13:04:00
Eccentricity: 0.0036412
inclination: 97.6580°
perigee height: 608 km
apogee height: 659 km
right ascension of ascending node: 249.3736°
argument of perigee: 196.8267°
revolutions per day: 14.78758934
mean anomaly at epoch: 163.1740°
orbit number at epoch: 41063

The dashed part of the orbit path shows where the satellite is in the earth's shadow,  

DLR